Location: Krakow
(50.0830°N, 19.9170°E)
Time: 23:44:09
(UTC+01:00)

S-56A Canister/Altair - Pass Details

Date: 02 December 2023
Orbit: 640 x 2488 km, 38.9° (Epoch: 22 February)

Event Time Altitude Azimuth Distance (km) Brightness Sun altitude
Rises 12:10:54 0° 214° (SW) 2,954 11.8 17.4°
Reaches altitude 10° 12:14:18 10° 186° (S) 2,021 12.3 17.3°
Maximum altitude 12:16:29 13° 157° (SSE) 1,832 10.6 17.2°
Drops below altitude 10° 12:18:45 10° 127° (SE) 2,120 10.2 17.1°
Sets 12:22:30 0° 101° (E) 3,231 10.7 17.0°
